Weather History for PADK - November, 2012

Change the Weather History Date:

Thursday, November 8, 2012

  Actual Average Record
Temperature  
Mean Temperature 40 °F -  
Max Temperature 42 °F 43 °F 52 °F (1980)
Min Temperature 37 °F 34 °F 26 °F (1983)
Degree Days  
Heating Degree Days 26    
Moisture  
Dew Point 38 °F    
Average Humidity 92    
Maximum Humidity 100    
Minimum Humidity 81    
Precipitation  
Precipitation 0.00 in - - ()
Sea Level Pressure  
Sea Level Pressure 29.59 in    
Wind  
Wind Speed 15 mph (North)    
Max Wind Speed 24 mph    
Max Gust Speed 31 mph    
Visibility 4 miles    
Events      
Averages and records for this station are not official NWS values.
T = Trace of Precipitation, MM = Missing Value Source: NWS Daily Summary

Daily Weather History Graph

Daily Weather History Graph

Search for Another Location

Airport or City:

Trip Planner

Search our weather history database for the weather conditions in past years. The results will help you decide how hot, cold, wet, or windy it might be!

Date:

Astronomy

Nov. 08, 2012 Rise Set
Actual Time 8:55 AM HST 6:05 PM HST
Civil Twilight 8:18 AM HST 6:41 PM HST
Nautical Twilight 7:38 AM HST 7:21 PM HST
Astronomical Twilight 6:58 AM HST 8:01 PM HST
Moon 2:25 AM HST (11/8) 3:28 PM HST (11/8)
Length of Visible Light 10h 22m
Length of Day
9h 09m
Waning Crescent, 31% of the Moon is Illuminated
Nov 8
Waning Crescent
Nov 13
New
Nov 20
First Quarter
Nov 28
Full
Dec 6
Last Quarter

Hourly Weather History & Observations

Time (HST) Temp. Windchill Dew Point Humidity Pressure Visibility Wind Dir Wind Speed Gust Speed Precip Events Conditions
12:16 AM 41.0 °F 34.7 °F 39.2 °F 93% 29.60 in 6.0 mi North 10.4 mph - N/A   Overcast
12:36 AM 41.0 °F 35.2 °F 39.2 °F 93% 29.60 in 5.0 mi NNE 9.2 mph - N/A   Overcast
12:56 AM 41.0 °F 34.7 °F 39.2 °F 93% 29.60 in 8.0 mi NNE 10.4 mph - N/A   Overcast
1:16 AM 41.0 °F 33.5 °F 39.2 °F 93% 29.59 in 5.0 mi NNE 13.8 mph 17.3 mph N/A   Overcast
1:36 AM 41.0 °F 36.4 °F 39.2 °F 93% 29.60 in 7.0 mi North 6.9 mph - N/A   Overcast
1:56 AM 41.0 °F 33.9 °F 39.2 °F 93% 29.59 in 9.0 mi North 12.7 mph - N/A   Overcast
2:16 AM 41.0 °F 33.9 °F 39.2 °F 93% 29.59 in 10.0 mi North 12.7 mph - N/A   Overcast
2:36 AM 41.0 °F 33.9 °F 39.2 °F 93% 29.59 in 8.0 mi North 12.7 mph - N/A   Overcast
2:56 AM 41.0 °F 33.9 °F 39.2 °F 93% 29.58 in 10.0 mi North 12.7 mph - N/A   Overcast
3:16 AM 41.0 °F 35.2 °F 39.2 °F 93% 29.58 in 10.0 mi North 9.2 mph - N/A   Overcast
3:36 AM 41.0 °F 34.3 °F 39.2 °F 93% 29.57 in 10.0 mi North 11.5 mph - N/A   Overcast
3:56 AM 41.0 °F 33.9 °F 39.2 °F 93% 29.57 in 10.0 mi North 12.7 mph - N/A   Overcast
4:16 AM 41.0 °F 33.1 °F 39.2 °F 93% 29.57 in 10.0 mi NNE 15.0 mph - N/A   Overcast
4:36 AM 41.0 °F 34.3 °F 39.2 °F 93% 29.57 in 9.0 mi NNE 11.5 mph - N/A   Overcast
4:56 AM 41.0 °F 33.1 °F 39.2 °F 93% 29.56 in 7.0 mi North 15.0 mph - N/A   Overcast
5:16 AM 41.0 °F 33.1 °F 39.2 °F 93% 29.56 in 5.0 mi North 15.0 mph - N/A   Overcast
5:36 AM 41.0 °F 33.1 °F 39.2 °F 93% 29.56 in 4.0 mi North 15.0 mph - N/A   Overcast
5:56 AM 41.0 °F 33.1 °F 39.2 °F 93% 29.56 in 4.0 mi North 15.0 mph 21.9 mph N/A   Overcast
6:16 AM 41.0 °F 33.9 °F 39.2 °F 93% 29.57 in 4.0 mi NNE 12.7 mph - N/A   Overcast
6:36 AM 41.0 °F 33.5 °F 39.2 °F 93% 29.57 in 4.0 mi North 13.8 mph - N/A   Overcast
6:56 AM 41.0 °F 33.5 °F 39.2 °F 93% 29.57 in 5.0 mi North 13.8 mph - N/A   Overcast
7:16 AM 41.0 °F 33.9 °F 39.2 °F 93% 29.57 in 7.0 mi North 12.7 mph - N/A   Overcast
7:36 AM 41.0 °F 33.5 °F 39.2 °F 93% 29.57 in 4.0 mi North 13.8 mph - N/A   Overcast
7:56 AM 41.0 °F 32.8 °F 39.2 °F 93% 29.57 in 3.0 mi North 16.1 mph 20.7 mph N/A   Overcast
8:16 AM 41.0 °F 32.8 °F 39.2 °F 93% 29.57 in 2.5 mi North 16.1 mph 20.7 mph N/A   Overcast
8:36 AM 41.0 °F 33.1 °F 39.2 °F 93% 29.58 in 2.0 mi North 15.0 mph 20.7 mph N/A   Overcast
8:56 AM 41.0 °F 32.8 °F 39.2 °F 93% 29.58 in 2.5 mi North 16.1 mph - N/A   Overcast
9:16 AM 41.0 °F 32.8 °F 39.2 °F 93% 29.59 in 1.8 mi North 16.1 mph 19.6 mph N/A   Overcast
9:36 AM 41.0 °F 33.1 °F 39.2 °F 93% 29.59 in 1.8 mi North 15.0 mph - N/A   Overcast
9:56 AM 41.0 °F 33.5 °F 39.2 °F 93% 29.59 in 1.8 mi North 13.8 mph 18.4 mph N/A   Overcast
10:16 AM 41.0 °F 33.5 °F 39.2 °F 93% 29.59 in 1.2 mi North 13.8 mph - N/A   Overcast
10:36 AM 41.0 °F 32.8 °F 39.2 °F 93% 29.58 in 1.2 mi North 16.1 mph 21.9 mph N/A   Overcast
10:56 AM 42.8 °F 34.8 °F 39.2 °F 87% 29.58 in 1.0 mi North 17.3 mph - N/A   Overcast
11:16 AM 42.8 °F 34.5 °F 39.2 °F 87% 29.59 in 1.2 mi North 18.4 mph 23.0 mph N/A   Overcast
11:36 AM 42.8 °F 34.8 °F 39.2 °F 87% 29.59 in 1.0 mi North 17.3 mph 23.0 mph N/A   Overcast
11:56 AM 42.8 °F 34.3 °F 39.2 °F 87% 29.58 in 1.0 mi North 19.6 mph 23.0 mph N/A   Overcast
12:16 PM 42.8 °F 34.0 °F 39.2 °F 87% 29.58 in 1.0 mi North 20.7 mph 26.5 mph N/A   Overcast
12:36 PM 42.8 °F 33.8 °F 39.2 °F 87% 29.58 in 1.2 mi North 21.9 mph 26.5 mph N/A   Overcast
12:56 PM 41.0 °F 30.9 °F 39.2 °F 93% 29.58 in 1.2 mi North 24.2 mph 27.6 mph N/A   Overcast
1:16 PM 41.0 °F 31.9 °F 39.2 °F 93% 29.57 in 1.0 mi North 19.6 mph 27.6 mph N/A   Overcast
1:36 PM 41.0 °F 31.1 °F 39.2 °F 93% 29.57 in 1.2 mi North 23.0 mph 29.9 mph N/A   Overcast
1:56 PM 41.0 °F 31.1 °F 39.2 °F 93% 29.57 in 1.2 mi North 23.0 mph 28.8 mph N/A   Overcast
2:16 PM 41.0 °F 31.6 °F 39.2 °F 93% 29.57 in 1.8 mi North 20.7 mph 29.9 mph N/A   Overcast
2:36 PM 41.0 °F 31.4 °F 39.2 °F 93% 29.57 in 1.5 mi North 21.9 mph 26.5 mph N/A   Overcast
2:56 PM 41.0 °F 31.4 °F 39.2 °F 93% 29.57 in 2.5 mi North 21.9 mph 26.5 mph N/A   Overcast
3:16 PM 41.0 °F 31.9 °F 39.2 °F 93% 29.57 in 1.2 mi North 19.6 mph 25.3 mph N/A   Overcast
3:36 PM 41.0 °F 31.9 °F 39.2 °F 93% 29.57 in 1.2 mi North 19.6 mph 26.5 mph N/A   Overcast
3:56 PM 41.0 °F 31.6 °F 39.2 °F 93% 29.57 in 1.2 mi North 20.7 mph 28.8 mph N/A   Overcast
4:16 PM 39.2 °F 29.6 °F 39.2 °F 100% 29.58 in 1.0 mi North 19.6 mph 26.5 mph N/A   Overcast
4:36 PM 39.2 °F 29.8 °F 39.2 °F 100% 29.58 in 1.0 mi North 18.4 mph 26.5 mph N/A   Overcast
4:56 PM 39.2 °F 29.8 °F 39.2 °F 100% 29.58 in 1.0 mi North 18.4 mph 27.6 mph N/A   Overcast
5:16 PM 39.2 °F 29.3 °F 39.2 °F 100% 29.58 in 1.5 mi North 20.7 mph 26.5 mph N/A   Overcast
5:36 PM 39.2 °F 29.8 °F 37.4 °F 93% 29.59 in 1.5 mi North 18.4 mph - N/A   Overcast
5:56 PM 39.2 °F 29.8 °F 37.4 °F 93% 29.59 in 1.8 mi North 18.4 mph 28.8 mph N/A   Overcast
6:16 PM 39.2 °F 29.6 °F 37.4 °F 93% 29.59 in 1.8 mi North 19.6 mph 24.2 mph N/A   Overcast
6:36 PM 39.2 °F 29.6 °F 37.4 °F 93% 29.59 in 2.5 mi North 19.6 mph 25.3 mph N/A   Overcast
6:56 PM 39.2 °F 29.8 °F 37.4 °F 93% 29.60 in 4.0 mi North 18.4 mph 23.0 mph N/A   Overcast
7:16 PM 39.2 °F 29.6 °F 37.4 °F 93% 29.61 in 5.0 mi North 19.6 mph 25.3 mph N/A   Overcast
7:36 PM 39.2 °F 28.7 °F 37.4 °F 93% 29.61 in 5.0 mi North 23.0 mph 27.6 mph N/A   Overcast
7:56 PM 39.2 °F 29.0 °F 37.4 °F 93% 29.62 in 4.0 mi North 21.9 mph 28.8 mph N/A   Overcast
8:16 PM 39.2 °F 28.5 °F 37.4 °F 93% 29.62 in 5.0 mi North 24.2 mph 29.9 mph N/A   Overcast
8:36 PM 39.2 °F 29.6 °F 37.4 °F 93% 29.63 in 5.0 mi North 19.6 mph 25.3 mph N/A   Overcast
8:56 PM 39.2 °F 29.6 °F 37.4 °F 93% 29.63 in 6.0 mi North 19.6 mph 24.2 mph N/A   Overcast
9:16 PM 39.2 °F 28.7 °F 37.4 °F 93% 29.63 in 10.0 mi North 23.0 mph 29.9 mph N/A   Overcast
9:36 PM 39.2 °F 29.3 °F 35.6 °F 87% 29.64 in 10.0 mi North 20.7 mph 31.1 mph N/A   Overcast
9:56 PM 39.2 °F 29.3 °F 35.6 °F 87% 29.65 in 9.0 mi North 20.7 mph 28.8 mph N/A   Overcast
10:16 PM 39.2 °F 29.0 °F 35.6 °F 87% 29.65 in 10.0 mi North 21.9 mph 28.8 mph N/A   Overcast
10:36 PM 39.2 °F 29.3 °F 35.6 °F 87% 29.66 in 10.0 mi North 20.7 mph 27.6 mph N/A   Overcast
10:56 PM 39.2 °F 28.7 °F 33.8 °F 81% 29.66 in 10.0 mi North 23.0 mph 31.1 mph N/A   Overcast
11:16 PM 37.4 °F 27.2 °F 33.8 °F 87% 29.67 in 10.0 mi North 19.6 mph 25.3 mph N/A   Overcast
11:36 PM 37.4 °F 26.4 °F 33.8 °F 87% 29.68 in 10.0 mi NNW 23.0 mph 29.9 mph N/A   Overcast
11:56 PM 37.4 °F 27.5 °F 35.6 °F 93% 29.68 in 5.0 mi North 18.4 mph 27.6 mph N/A   Overcast